N3EDS Weather Reports


Display with metric or nautical units.
time (UTC)temp
F
wind
direction
speed
MPH
gust
MPH
rain 1hr
in
rain 24hr
in
rain mn
in
humidity
%
barometer
mb
20260504045408 38 145 0.0 0.0 0.00 0.00 0.00 80 1015.2
20260504044905 38 145 0.0 0.0 0.00 0.00 0.00 79 1015.0
20260504044403 38 137 0.0 0.0 0.00 0.00 0.00 78 1014.9
20260504043900 38 134 0.0 0.0 0.00 0.00 0.00 78 1015.0
20260504043356 39 133 0.0 0.0 0.00 0.00 0.00 76 1015.0
20260504042854 39 133 0.0 0.0 0.00 0.00 0.00 76 1014.7
20260504042350 40 143 0.0 0.0 0.00 0.00 0.00 75 1014.9
20260504041846 40 144 0.0 0.0 0.00 0.00 0.00 72 1014.9
20260504041343 40 102 1.0 1.0 0.00 0.00 0.00 72 1014.9
20260504040839 40 144 0.0 1.0 0.00 0.00 0.00 75 1014.9
20260504040337 40 149 0.0 0.0 0.00 0.00 0.00 75 1014.9
20260504035832 39 148 0.0 0.0 0.00 0.00 0.00 76 1014.8
20260504035330 39 149 0.0 0.0 0.00 0.00 0.00 75 1015.0
20260504034827 39 148 0.0 0.0 0.00 0.00 0.00 73 1015.0
20260504034325 40 149 0.0 0.0 0.00 0.00 0.00 73 1015.2
20260504033821 40 149 0.0 0.0 0.00 0.00 0.00 75 1014.9
20260504033320 40 149 0.0 0.0 0.00 0.00 0.00 77 1015.3
20260504032816 40 149 0.0 0.0 0.00 0.00 0.00 74 1015.2
20260504032313 40 152 0.0 1.0 0.00 0.00 0.00 76 1015.3
20260504031810 40 148 0.0 0.0 0.00 0.00 0.00 74 1015.0
20260504031307 40 148 0.0 0.0 0.00 0.00 0.00 73 1015.3
20260504030803 40 148 0.0 0.0 0.00 0.00 0.00 72 1015.4
20260504030301 40 148 0.0 0.0 0.00 0.00 0.00 70 1015.3
20260504025756 40 149 0.0 0.0 0.00 0.00 0.00 71 1014.8
20260504025254 40 146 0.0 0.0 0.00 0.00 0.00 70 1015.2
20260504024750 40 146 0.0 0.0 0.00 0.00 0.00 69 1015.3
20260504024247 40 146 0.0 0.0 0.00 0.00 0.00 70 1015.4
20260504023744 40 146 0.0 0.0 0.00 0.00 0.00 70 1015.3
20260504023240 41 146 0.0 0.0 0.00 0.00 0.00 71 1015.3
20260504022736 41 146 0.0 0.0 0.00 0.00 0.00 70 1015.2
20260504022233 41 146 0.0 0.0 0.00 0.00 0.00 71 1015.3
20260504021730 42 146 0.0 0.0 0.00 0.00 0.00 71 1015.3
20260504021227 41 146 0.0 0.0 0.00 0.00 0.00 68 1015.3
20260504020724 41 146 0.0 0.0 0.00 0.00 0.00 69 1015.2
20260504020220 41 146 0.0 0.0 0.00 0.00 0.00 65 1015.0
20260504015716 42 146 0.0 0.0 0.00 0.00 0.00 71 1015.0
20260504015213 42 146 0.0 0.0 0.00 0.00 0.00 64 1015.3
20260504014709 42 146 0.0 0.0 0.00 0.00 0.00 63 1015.2
20260504014206 42 146 0.0 0.0 0.00 0.00 0.00 63 1014.9
20260504013704 42 146 0.0 0.0 0.00 0.00 0.00 65 1015.2
20260504013201 43 146 0.0 0.0 0.00 0.00 0.00 64 1014.8
20260504012657 43 146 0.0 0.0 0.00 0.00 0.00 66 1015.0
20260504012155 43 146 0.0 0.0 0.00 0.00 0.00 64 1014.8
20260504011652 44 146 0.0 0.0 0.00 0.00 0.00 64 1014.8
20260504011148 44 146 0.0 0.0 0.00 0.00 0.00 59 1014.7
20260504010644 45 147 0.0 0.0 0.00 0.00 0.00 59 1015.0
20260504010140 45 148 0.0 1.0 0.00 0.00 0.00 60 1014.8
20260504005637 45 129 0.0 0.0 0.00 0.00 0.00 60 1015.2
20260504005134 45 129 0.0 0.0 0.00 0.00 0.00 62 1014.9
20260504004632 46 129 0.0 0.0 0.00 0.00 0.00 61 1014.8
20260504004129 46 129 0.0 0.0 0.00 0.00 0.00 59 1014.7
20260504003625 47 147 0.0 0.0 0.00 0.00 0.00 57 1015.0
20260504003122 47 158 0.0 0.0 0.00 0.00 0.00 58 1014.6
20260504002619 48 151 0.0 1.0 0.00 0.00 0.00 56 1014.8
20260504002116 48 152 0.0 1.0 0.00 0.00 0.00 54 1014.8
20260504001614 48 165 0.0 1.0 0.00 0.00 0.00 54 1014.7
20260504001109 49 174 1.0 1.0 0.00 0.00 0.00 55 1015.0
20260504000607 49 279 1.0 2.0 0.00 0.00 0.00 51 1014.8
20260504000105 49 173 1.0 2.0 0.00 0.00 0.00 50 1014.8
20260503235603 49 179 1.0 2.0 0.00 0.00 0.00 49 1014.7
20260503235059 49 274 1.0 1.0 0.00 0.00 0.00 52 1014.9
20260503234557 50 232 2.0 2.0 0.00 0.00 0.00 50 1014.6
20260503234055 50 260 1.0 3.0 0.00 0.00 0.00 49 1014.7
20260503233551 50 246 2.0 2.0 0.00 0.00 0.00 48 1014.8
20260503233047 50 74 1.0 3.0 0.00 0.00 0.00 48 1014.8
20260503232544 51 174 1.0 3.0 0.00 0.00 0.00 49 1014.7
20260503232042 51 318 2.0 3.0 0.00 0.00 0.00 47 1014.8
20260503231539 51 175 1.0 2.0 0.00 0.00 0.00 48 1014.8
20260503231036 51 201 1.0 2.0 0.00 0.00 0.00 46 1014.7
20260503230532 51 275 3.0 3.0 0.00 0.00 0.00 46 1014.8
20260503230030 51 299 4.0 6.0 0.00 0.00 0.00 48 1014.8
20260503225527 51 171 1.0 3.0 0.00 0.00 0.00 46 1014.8
20260503225021 51 249 2.0 3.0 0.00 0.00 0.00 45 1014.7
20260503224519 52 244 3.0 3.0 0.00 0.00 0.00 43 1014.9
20260503224012 52 288 2.0 3.0 0.00 0.00 0.00 45 1014.7
20260503223510 52 215 1.0 2.0 0.00 0.00 0.00 45 1014.7
20260503223005 52 204 2.0 6.0 0.00 0.00 0.00 43 1014.9
20260503222503 52 268 3.0 6.0 0.00 0.00 0.00 43 1014.8
20260503222001 53 210 1.0 4.0 0.00 0.00 0.00 44 1014.7
20260503221458 53 271 4.0 6.0 0.00 0.00 0.00 43 1014.9
20260503220950 52 15 2.0 2.0 0.00 0.00 0.00 44 1014.6
20260503220446 52 348 2.0 2.0 0.00 0.00 0.00 44 1014.7
20260503215943 53 271 4.0 6.0 0.00 0.00 0.00 44 1014.8
20260503215440 53 124 0.0 3.0 0.00 0.00 0.00 46 1014.7
20260503214937 53 14 2.0 4.0 0.00 0.00 0.00 43 1014.6
20260503214435 54 258 4.0 4.0 0.00 0.00 0.00 42 1014.7
20260503213932 53 322 1.0 2.0 0.00 0.00 0.00 45 1015.0
20260503213431 53 175 1.0 3.0 0.00 0.00 0.00 44 1014.9
20260503212926 53 192 2.0 3.0 0.00 0.00 0.00 42 1014.8
20260503212424 53 265 2.0 3.0 0.00 0.00 0.00 44 1014.8
20260503211921 53 287 2.0 4.0 0.00 0.00 0.00 43 1015.2
20260503211418 54 259 3.0 6.0 0.00 0.00 0.00 42 1014.7
20260503210913 53 188 3.0 9.0 0.00 0.00 0.00 44 1014.7
20260503210410 53 52 1.0 2.0 0.00 0.00 0.00 45 1014.8
20260503205905 54 189 3.0 4.0 0.00 0.00 0.00 43 1014.9
20260503205403 53 43 2.0 4.0 0.00 0.00 0.00 45 1015.0
20260503204858 53 258 4.0 7.0 0.00 0.00 0.00 44 1015.2
20260503204356 54 273 2.0 3.0 0.00 0.00 0.00 43 1014.9
20260503203853 55 297 1.0 6.0 0.00 0.00 0.00 44 1015.0
20260503203350 52 49 1.0 2.0 0.00 0.00 0.00 45 1015.4
20260503202847 53 292 3.0 4.0 0.00 0.00 0.00 44 1015.2
20260503202345 54 257 1.0 3.0 0.00 0.00 0.00 43 1015.3
20260503201844 52 247 3.0 3.0 0.00 0.00 0.00 45 1015.3
20260503201340 54 198 2.0 6.0 0.00 0.00 0.00 42 1015.4
20260503200838 53 166 3.0 7.0 0.00 0.00 0.00 42 1015.4
20260503200333 52 205 2.0 2.0 0.00 0.00 0.00 44 1015.4
20260503195831 53 276 2.0 4.0 0.00 0.00 0.00 46 1015.4
20260503195327 53 288 3.0 7.0 0.00 0.00 0.00 42 1015.4
20260503194825 52 296 3.0 4.0 0.00 0.00 0.00 45 1015.5
20260503194320 54 264 2.0 6.0 0.00 0.00 0.00 43 1015.6
20260503193817 53 184 3.0 7.0 0.00 0.00 0.00 42 1015.5
20260503193313 53 326 2.0 7.0 0.00 0.00 0.00 43 1015.8
20260503192809 53 183 2.0 3.0 0.00 0.00 0.00 45 1015.8
20260503192305 53 206 1.0 6.0 0.00 0.00 0.00 44 1015.8
20260503191801 54 94 1.0 3.0 0.00 0.00 0.00 43 1015.8
20260503191258 54 342 3.0 4.0 0.00 0.00 0.00 43 1016.0
20260503190755 54 267 2.0 6.0 0.00 0.00 0.00 47 1015.8
20260503190251 53 231 2.0 4.0 0.00 0.00 0.00 42 1016.0
20260503185749 51 354 2.0 4.0 0.00 0.00 0.00 49 1015.9
20260503185244 52 280 2.0 7.0 0.00 0.00 0.00 44 1016.1
20260503184739 53 106 3.0 8.0 0.00 0.00 0.00 44 1015.9
20260503184236 54 256 2.0 3.0 0.00 0.00 0.00 46 1016.3
20260503183732 54 324 3.0 6.0 0.00 0.00 0.00 44 1016.2
20260503183230 54 175 2.0 6.0 0.00 0.00 0.00 45 1016.1
20260503182727 54 334 4.0 4.0 0.00 0.00 0.00 44 1016.2
20260503182226 53 217 3.0 7.0 0.00 0.00 0.00 45 1016.2
20260503181722 51 225 4.0 4.0 0.00 0.00 0.00 44 1016.3
20260503181219 51 22 2.0 8.0 0.00 0.00 0.00 46 1016.3
20260503180715 52 218 4.0 6.0 0.00 0.00 0.00 46 1016.2
20260503180214 53 356 5.0 6.0 0.00 0.00 0.00 46 1016.2
20260503175710 53 257 5.0 7.0 0.00 0.00 0.00 44 1016.2
20260503175208 52 24 2.0 3.0 0.00 0.00 0.00 45 1016.5
20260503174704 53 320 1.0 7.0 0.00 0.00 0.00 48 1016.3
20260503174202 51 192 3.0 4.0 0.00 0.00 0.00 46 1016.8
20260503173657 52 165 2.0 7.0 0.00 0.00 0.00 43 1016.8
20260503173153 51 181 2.0 3.0 0.00 0.00 0.00 44 1016.6
20260503172650 51 283 4.0 7.0 0.00 0.00 0.00 45 1016.6
20260503172147 51 271 1.0 6.0 0.00 0.00 0.00 51 1016.4
20260503171643 51 42 2.0 6.0 0.00 0.00 0.00 44 1016.8
20260503171141 51 288 5.0 7.0 0.00 0.00 0.00 47 1016.9
20260503170638 51 295 6.0 7.0 0.00 0.00 0.00 45 1017.0
20260503170135 51 313 5.0 7.0 0.00 0.00 0.00 46 1016.8
20260503150526 46 295 4.0 7.0 0.00 0.00 0.00 52 1017.6
20260503131419 40 274 2.0 6.0 0.00 0.00 0.00 72 1017.5
20260503130915 40 69 2.0 3.0 0.00 0.00 0.00 75 1017.3
20260503130414 39 271 3.0 3.0 0.00 0.00 0.00 74 1017.5
20260503110811 30 182 0.0 1.0 0.00 0.00 0.00 98 1016.6
20260503110309 30 201 1.0 1.0 0.00 0.00 0.00 99 1016.6
20260503100235 29 146 0.0 1.0 0.00 0.00 0.00 99 1016.1
20260503090154 30 136 0.0 0.0 0.00 0.00 0.00 98 1015.7
20260503081629 32 184 1.0 1.0 0.00 0.00 0.00 96 1015.6
20260503081126 31 160 0.0 1.0 0.00 0.00 0.00 97 1015.4
20260503080622 31 197 1.0 2.0 0.00 0.00 0.00 97 1015.7
20260503080119 31 141 0.0 0.0 0.00 0.00 0.00 96 1015.2
20260503072556 31 157 0.0 1.0 0.00 0.00 0.00 92 1015.4
20260503072053 31 146 0.0 1.0 0.00 0.00 0.00 92 1015.2
20260503071550 32 204 0.0 0.0 0.00 0.00 0.00 91 1015.0
20260503071047 32 131 0.0 1.0 0.00 0.00 0.00 90 1014.9
20260503070543 32 153 0.0 0.0 0.00 0.00 0.00 89 1014.8
20260503054957 35 158 1.0 1.0 0.00 0.00 0.00 84 1015.5
20260503054453 35 151 1.0 1.0 0.00 0.00 0.00 84 1015.0
20260503053951 35 154 0.0 1.0 0.00 0.00 0.00 86 1015.0
20260503053449 35 193 1.0 1.0 0.00 0.00 0.00 85 1015.3
20260503052945 35 156 1.0 1.0 0.00 0.00 0.00 84 1015.0
20260503052443 35 158 0.0 1.0 0.00 0.00 0.00 85 1015.2
20260503051939 35 62 0.0 1.0 0.00 0.00 0.00 85 1015.5
20260503051435 35 121 1.0 1.0 0.00 0.00 0.00 85 1015.4
20260503050932 35 110 0.0 1.0 0.00 0.00 0.00 85 1015.4
20260503050428 35 161 0.0 1.0 0.00 0.00 0.00 85 1015.5
20260503045926 35 167 0.0 1.0 0.00 0.00 0.00 85 1015.7